CW8845 Weather Reports


Display with metric or nautical units.
time (UTC)temp
F
wind
direction
speed
MPH
gust
MPH
rain 1hr
in
rain 24hr
in
rain mn
in
humidity
%
barometer
mb
20260505230646 69 287 4.0 12.0 0.00 0.02 0.02 17 1006.2
20260505225624 69 355 5.0 11.0 0.00 0.02 0.02 17 1006.3
20260505224616 69 46 5.0 15.0 0.00 0.02 0.02 17 1006.3
20260505223625 68 329 4.0 12.0 0.00 0.02 0.02 21 1006.4
20260505222614 68 310 5.0 10.0 0.00 0.02 0.02 22 1006.4
20260505221627 68 16 4.0 12.0 0.00 0.02 0.02 23 1006.5
20260505220617 68 297 7.0 13.0 0.00 0.02 0.02 23 1006.6
20260505215618 68 11 6.0 14.0 0.00 0.02 0.02 22 1006.8
20260505214626 67 360 6.0 13.0 0.00 0.02 0.02 25 1007.0
20260505213620 66 38 5.0 13.0 0.00 0.02 0.02 32 1007.0
20260505212628 65 12 3.0 11.0 0.00 0.02 0.02 34 1007.2
20260505211614 65 48 6.0 13.0 0.00 0.02 0.02 34 1007.4
20260505210620 64 331 2.0 9.0 0.00 0.02 0.02 36 1007.6
20260505205626 64 5 2.0 7.0 0.00 0.02 0.02 37 1007.8
20260505204636 63 18 5.0 11.0 0.00 0.02 0.02 36 1008.0
20260505203623 63 349 2.0 8.0 0.00 0.02 0.02 36 1008.2
20260505202614 62 60 3.0 12.0 0.00 0.02 0.02 35 1008.3
20260505201626 61 5 6.0 11.0 0.00 0.02 0.02 38 1008.4
20260505200616 61 72 5.0 9.0 0.00 0.02 0.02 49 1008.6
20260505195616 60 29 5.0 10.0 0.00 0.02 0.02 54 1008.6
20260505194626 59 19 4.0 9.0 0.00 0.02 0.02 62 1008.7
20260505193619 58 65 1.0 6.0 0.00 0.02 0.02 67 1008.7
20260505192628 57 87 2.0 6.0 0.00 0.02 0.02 69 1008.9
20260505191618 56 97 2.0 6.0 0.00 0.02 0.02 76 1009.0
20260505190626 55 62 2.0 7.0 0.01 0.02 0.02 79 1009.1
20260505185629 54 355 0.0 5.0 0.01 0.02 0.02 81 1009.2
20260505184618 53 347 1.0 5.0 0.02 0.02 0.02 82 1009.2
20260505183625 52 54 2.0 6.0 0.02 0.02 0.02 82 1009.2
20260505182625 51 18 4.0 8.0 0.02 0.02 0.02 80 1009.4
20260505181630 50 344 3.0 8.0 0.02 0.02 0.02 79 1009.5
20260505180621 50 355 5.0 10.0 0.01 0.01 0.01 74 1009.6
20260505175618 51 355 3.0 12.0 0.01 0.01 0.01 71 1009.6
20260505174623 52 342 6.0 13.0 0.00 0.00 0.00 67 1009.7
20260505173630 52 5 6.0 16.0 0.00 0.00 0.00 62 1009.6
20260505172622 53 17 10.0 17.0 0.00 0.00 0.00 59 1009.6
20260505171632 53 355 10.0 19.0 0.00 0.00 0.00 58 1009.5
20260505170642 53 5 10.0 17.0 0.00 0.00 0.00 54 1009.3
20260505165619 53 9 10.0 18.0 0.00 0.00 0.00 53 1009.2
20260505164631 53 350 10.0 14.0 0.00 0.00 0.00 54 1009.0
20260505163640 54 17 11.0 20.0 0.00 0.00 0.00 54 1009.0
20260505162629 55 13 9.0 16.0 0.00 0.00 0.00 55 1009.0
20260505161620 56 21 7.0 15.0 0.00 0.00 0.00 57 1008.9
20260505160614 56 360 6.0 11.0 0.00 0.00 0.00 58 1008.7
20260505152625 58 348 4.0 6.0 0.00 0.00 0.00 57 1008.2
20260505151616 58 294 4.0 9.0 0.00 0.00 0.00 59 1008.1
20260505150625 57 346 3.0 8.0 0.00 0.00 0.00 60 1008.1
20260505140625 54 360 5.0 10.0 0.00 0.00 0.00 65 1008.1
20260505124644 54 96 2.0 6.0 0.00 0.00 0.00 65 1007.4
20260505123631 54 82 4.0 8.0 0.00 0.00 0.00 66 1007.3
20260505122619 54 11 1.0 3.0 0.00 0.00 0.00 66 1007.3
20260505121626 53 9 0.0 2.0 0.00 0.00 0.00 66 1007.3
20260505120616 53 9 3.0 6.0 0.00 0.00 0.00 67 1007.2
20260505115615 53 308 1.0 5.0 0.00 0.00 0.00 65 1007.1
20260505114624 54 21 3.0 6.0 0.00 0.00 0.00 60 1007.1
20260505113632 56 296 1.0 4.0 0.00 0.00 0.00 57 1006.9
20260505112623 57 74 1.0 4.0 0.00 0.00 0.00 56 1006.8
20260505111652 57 71 2.0 4.0 0.00 0.00 0.00 55 1006.7
20260505110616 57 65 3.0 4.0 0.00 0.00 0.00 54 1006.6
20260505101620 57 224 0.0 3.0 0.00 0.00 0.00 51 1006.5
20260505100613 57 224 0.0 2.0 0.00 0.00 0.00 52 1006.4
20260505095612 57 224 0.0 1.0 0.00 0.00 0.00 52 1006.4
20260505094640 58 224 0.0 5.0 0.00 0.00 0.00 49 1006.2
20260505093647 58 180 3.0 7.0 0.00 0.00 0.00 49 1006.2
20260505092612 57 165 1.0 5.0 0.00 0.00 0.00 50 1006.2
20260505091620 57 207 0.0 2.0 0.00 0.00 0.00 49 1006.2
20260505090623 58 207 1.0 4.0 0.00 0.00 0.00 49 1006.2
20260505085620 59 42 1.0 3.0 0.00 0.00 0.00 48 1006.3
20260505084628 59 187 2.0 4.0 0.00 0.00 0.00 46 1006.4
20260505083639 59 176 3.0 7.0 0.00 0.00 0.00 46 1006.3
20260505082625 59 186 3.0 6.0 0.00 0.00 0.00 47 1006.3
20260505081612 59 179 4.0 8.0 0.00 0.00 0.00 47 1006.3
20260505080619 59 188 6.0 9.0 0.00 0.00 0.00 48 1006.2
20260505075621 58 188 4.0 11.0 0.00 0.00 0.00 48 1006.2
20260505074629 58 86 2.0 5.0 0.00 0.00 0.00 46 1006.3
20260505073615 58 123 1.0 4.0 0.00 0.00 0.00 45 1006.4
20260505072620 57 69 0.0 3.0 0.00 0.00 0.00 47 1006.5
20260505071614 57 70 1.0 3.0 0.00 0.00 0.00 46 1006.5
20260505070625 56 69 1.0 4.0 0.00 0.00 0.00 45 1006.6
20260505065625 57 69 0.0 1.0 0.00 0.00 0.00 43 1006.6
20260505064614 59 69 2.0 4.0 0.00 0.00 0.00 39 1006.6
20260505063623 61 284 0.0 2.0 0.00 0.00 0.00 39 1006.6
20260505062613 60 18 0.0 6.0 0.00 0.00 0.00 39 1006.4
20260505061642 59 343 1.0 5.0 0.00 0.00 0.00 40 1006.5
20260505060636 60 297 2.0 8.0 0.00 0.00 0.00 39 1006.1
20260505055630 63 284 4.0 14.0 0.00 0.00 0.00 39 1005.9
20260505054622 63 171 7.0 17.0 0.00 0.00 0.00 41 1005.5
20260505053629 64 205 11.0 18.0 0.00 0.00 0.00 38 1005.6
20260505052617 65 189 6.0 11.0 0.00 0.00 0.00 30 1005.4
20260505051625 65 164 6.0 10.0 0.00 0.00 0.00 31 1005.4
20260505050617 65 180 7.0 11.0 0.00 0.00 0.00 31 1005.5
20260505041629 67 224 7.0 21.0 0.00 0.00 0.00 28 1005.2
20260505040617 67 217 5.0 12.0 0.00 0.00 0.00 30 1005.2
20260505035615 65 217 3.0 9.0 0.00 0.00 0.00 33 1005.4
20260505034628 65 204 1.0 4.0 0.00 0.00 0.00 32 1005.5
20260505033617 66 204 1.0 5.0 0.00 0.00 0.00 31 1005.5
20260505032624 66 250 1.0 2.0 0.00 0.00 0.00 30 1005.5
20260505031650 66 250 0.0 5.0 0.00 0.00 0.00 30 1005.5
20260505030621 66 258 0.0 11.0 0.00 0.00 0.00 30 1005.4
20260505025617 66 246 1.0 6.0 0.00 0.00 0.00 30 1005.2
20260505024645 65 224 1.0 3.0 0.00 0.00 0.00 32 1005.0
20260505023630 64 355 2.0 5.0 0.00 0.00 0.00 31 1004.8
20260505022616 65 236 0.0 7.0 0.00 0.00 0.00 31 1004.6
20260505021630 68 217 0.0 3.0 0.00 0.00 0.00 28 1004.2
20260505020618 69 117 0.0 1.0 0.00 0.00 0.00 25 1004.0
20260505015617 69 109 2.0 5.0 0.00 0.00 0.00 24 1003.9
20260505014622 70 137 2.0 7.0 0.00 0.00 0.00 24 1003.9
20260505013616 70 107 3.0 9.0 0.00 0.00 0.00 24 1004.0
20260505012626 70 211 6.0 19.0 0.00 0.00 0.00 23 1004.2
20260505011614 70 200 9.0 16.0 0.00 0.00 0.00 23 1004.3
20260505010643 71 231 4.0 12.0 0.00 0.00 0.00 23 1004.5
20260505005644 71 76 5.0 9.0 0.00 0.00 0.00 22 1004.4
20260505004631 71 188 5.0 8.0 0.00 0.00 0.00 24 1004.4
20260505003638 71 118 2.0 8.0 0.00 0.00 0.00 23 1004.2
20260505002624 72 180 4.0 9.0 0.00 0.00 0.00 23 1004.6
20260505001616 71 88 6.0 12.0 0.00 0.00 0.00 22 1004.2
20260505000620 72 90 9.0 14.0 0.00 0.00 0.00 23 1004.2
20260504235617 73 59 5.0 13.0 0.00 0.00 0.00 23 1004.1
20260504234623 74 27 4.0 7.0 0.00 0.00 0.00 21 1004.2
20260504233616 75 360 3.0 9.0 0.00 0.00 0.00 19 1004.1
20260504232626 76 306 3.0 9.0 0.00 0.00 0.00 17 1004.1
20260504231616 77 265 6.0 12.0 0.00 0.00 0.00 16 1004.1